Home   Weather   Barcelona   Past weeks

Flag for Spain Past Weather in Barcelona, Barcelona, Spain — Yesterday and Last 2 Weeks

Now
46 °F

Clear.


Feels Like: 40 °F
Forecast: 46 / 62 °F
Wind: 15 mph from Northwest

Location: Barcelona Airport

Current Time: Dec 8, 2016 at 5:08:16 am

Latest Report: Dec 8, 2016 at 4:30 am


Visibility: 10 mi

Pressure: 30.51 "Hg

Humidity: 82%

Dew Point: 41 °F

Location of BarcelonaLocation

Past Weather in Barcelona — Graph

°F

Barcelona Temperature Yesterday

Maximum temperature yesterday: 61 °F (at 1:00 pm)
Minimum temperature yesterday: 46 °F (at 5:00 am)
Average temperature yesterday: 53 °F

High & Low Weather Summary for the Past Weeks

 TemperatureHumidityPressure
High66 °F (Nov 23, 3:30 am)94% (Nov 23, 4:30 pm)30.54 "Hg (Nov 23, 4:30 pm)
Low39 °F (Dec 2, 6:00 am)51% (Nov 25, 4:00 pm)29.53 "Hg (Nov 23, 3:30 pm)
Average54 °F80%30.07 "Hg
* Reported Nov 23 3:00 am — Dec 8 3:30 am, Barcelona, Weather by CustomWeather, © 2016

Note: Actual official high and low records may vary slightly from our data, if they occured in-between our weather recording intervals... More about our weather records

Advertising

Barcelona Weather History for the Previous 24 Hours

Scroll right to see more
 ConditionsComfort  
Time TempWeatherWind HumidityBarometerVisibility
3:30 am
Thu, Dec 8
46 °FClear.13 mph87%30.54 "Hg10 mi
3:00 am48 °FClear.10 mph82%30.54 "Hg10 mi
2:30 am48 °FClear.12 mph82%30.54 "Hg10 mi
2:00 am48 °FClear.13 mph82%30.54 "Hg10 mi
1:30 am48 °FClear.12 mph87%30.54 "Hg10 mi
1:00 am48 °FClear.10 mph87%30.54 "Hg10 mi
12:30 am48 °FClear.9 mph87%30.54 "Hg10 mi
12:00 am48 °FPassing clouds.9 mph87%30.54 "HgN/A
11:30 pm
Wed, Dec 7
50 °FPassing clouds.7 mph88%30.54 "HgN/A
11:00 pm50 °FPassing clouds.8 mph88%30.54 "HgN/A
10:30 pm50 °FPassing clouds.7 mph88%30.51 "HgN/A
10:00 pm50 °FPassing clouds.3 mph88%30.51 "HgN/A
9:30 pm50 °FPassing clouds.6 mph88%30.51 "HgN/A
9:00 pm52 °FPassing clouds.2 mph82%30.51 "HgN/A
8:30 pm54 °FPassing clouds.2 mph82%30.51 "HgN/A
8:00 pm54 °FPassing clouds.1 mph82%30.51 "HgN/A
7:30 pm55 °FPassing clouds.No wind82%30.48 "HgN/A
7:00 pm57 °FClear.5 mph77%30.48 "Hg10 mi
6:30 pm55 °FClear.5 mph77%30.48 "Hg10 mi
6:00 pm57 °FClear.5 mph77%30.45 "Hg10 mi
5:30 pm59 °FClear.5 mph72%30.45 "Hg10 mi
5:00 pm59 °FSunny.5 mph72%30.45 "Hg10 mi
4:30 pm61 °FSunny.6 mph63%30.45 "Hg10 mi
4:00 pm61 °FSunny.8 mph63%30.45 "Hg10 mi
3:30 pm61 °FSunny.10 mph63%30.42 "Hg10 mi
3:00 pm61 °FPassing clouds.9 mph59%30.42 "HgN/A
2:30 pm61 °FPassing clouds.9 mph59%30.42 "HgN/A
2:00 pm61 °FPassing clouds.8 mph59%30.42 "HgN/A
1:30 pm61 °FPassing clouds.9 mph63%30.42 "HgN/A
1:00 pm61 °FSunny.9 mph59%30.45 "Hg10 mi
12:30 pm59 °FPassing clouds.9 mph63%30.45 "HgN/A
12:00 pm59 °FPassing clouds.7 mph63%30.45 "HgN/A
11:30 am55 °FSunny.8 mph72%30.45 "Hg10 mi
11:00 am54 °FPassing clouds.10 mph72%30.48 "HgN/A
10:30 am52 °FPassing clouds.12 mph77%30.45 "HgN/A
10:00 am50 °FPassing clouds.12 mph76%30.45 "HgN/A
9:30 am48 °FPassing clouds.13 mph82%30.45 "HgN/A
9:00 am48 °FPassing clouds.13 mph82%30.42 "HgN/A
8:30 am46 °FPassing clouds.12 mph87%30.42 "HgN/A
8:00 am46 °FPassing clouds.8 mph87%30.42 "HgN/A
7:30 am46 °FClear.9 mph87%30.42 "Hg10 mi
7:00 am46 °FClear.13 mph87%30.39 "Hg10 mi
6:30 am46 °FClear.13 mph87%30.39 "Hg10 mi
6:00 am46 °FClear.13 mph87%30.39 "Hg10 mi
5:30 am46 °FPassing clouds.12 mph87%30.39 "HgN/A
5:00 am46 °FClear.12 mph93%30.39 "Hg10 mi
Weather by CustomWeather, © 2016

See weather overviewHow to use our weather pages